Time,TemperatureF,DewpointF,PressureIn,WindDirection,WindDirectionDegrees,WindSpeedMPH,WindSpeedGustMPH,Humidity,HourlyPrecipIn,Conditions,Clouds,dailyrainin,SoftwareType,DateUTC
2013-06-15 00:00:00,70.7,60.4,29.84,SSE,158,2.5,3.5,70,0.00,CLR,CLR,0.00,WeatherDisplay:10.37,2013-06-15 05:00:00,
2013-06-15 00:06:00,70.5,60.3,29.85,SSE,158,7.0,10.4,70,0.00,CLR,CLR,0.00,WeatherDisplay:10.37,2013-06-15 05:06:00,
2013-06-15 00:11:00,70.5,60.7,29.85,South,180,3.4,5.8,71,0.00,CLR,CLR,0.00,WeatherDisplay:10.37,2013-06-15 05:11:00,
2013-06-15 00:16:00,70.3,60.5,29.85,South,180,4.2,4.6,71,0.00,CLR,CLR,0.00,WeatherDisplay:10.37,2013-06-15 05:16:00,
2013-06-15 00:21:00,70.3,60.5,29.85,ESE,112,4.4,6.9,71,0.00,CLR,CLR,0.00,WeatherDisplay:10.37,2013-06-15 05:21:00,
2013-06-15 00:26:00,70.3,60.5,29.86,South,180,6.8,8.1,71,0.00,CLR,CLR,0.00,WeatherDisplay:10.37,2013-06-15 05:26:00,
2013-06-15 00:31:00,70.2,60.3,29.85,South,180,2.0,4.6,71,0.00,CLR,CLR,0.00,WeatherDisplay:10.37,2013-06-15 05:31:00,
2013-06-15 00:36:00,70.2,60.3,29.85,South,180,3.3,5.8,71,0.00,CLR,CLR,0.00,WeatherDisplay:10.37,2013-06-15 05:36:00,
2013-06-15 00:42:00,70.0,60.5,29.85,South,180,1.5,4.6,72,0.00,CLR,CLR,0.00,WeatherDisplay:10.37,2013-06-15 05:42:00,
2013-06-15 00:47:00,70.0,60.5,29.85,South,180,3.1,3.6,72,0.00,CLR,CLR,0.00,WeatherDisplay:10.37,2013-06-15 05:47:00,
2013-06-15 00:52:00,70.0,60.5,29.86,SSE,158,3.4,4.9,72,0.00,CLR,CLR,0.00,WeatherDisplay:10.37,2013-06-15 05:52:00,
2013-06-15 00:57:00,69.6,60.2,29.86,SSE,158,4.7,6.9,72,0.00,CLR,CLR,0.00,WeatherDisplay:10.37,2013-06-15 05:57:00,
2013-06-15 01:02:00,69.6,60.6,29.85,SSW,202,6.6,8.1,73,0.00,CLR,CLR,0.00,WeatherDisplay:10.37,2013-06-15 06:02:00,
2013-06-15 01:07:00,69.6,60.6,29.85,SE,135,4.0,6.0,73,0.00,CLR,CLR,0.00,WeatherDisplay:10.37,2013-06-15 06:07:00,
2013-06-15 01:13:00,69.6,60.6,29.86,SSE,158,5.7,10.5,73,0.00,CLR,CLR,0.00,WeatherDisplay:10.37,2013-06-15 06:13:00,
2013-06-15 01:18:00,69.6,60.6,29.86,SSE,158,3.2,3.5,73,0.00,CLR,CLR,0.00,WeatherDisplay:10.37,2013-06-15 06:18:00,
2013-06-15 01:23:00,69.6,60.6,29.86,SE,135,2.2,4.6,73,0.00,CLR,CLR,0.00,WeatherDisplay:10.37,2013-06-15 06:23:00,
2013-06-15 01:28:00,69.6,61.0,29.87,SSW,202,3.4,6.7,74,0.00,CLR,CLR,0.00,WeatherDisplay:10.37,2013-06-15 06:28:00,
2013-06-15 01:34:00,69.6,61.0,29.87,SSE,158,5.0,8.5,74,0.00,CLR,CLR,0.00,WeatherDisplay:10.37,2013-06-15 06:34:00,
2013-06-15 01:39:00,69.6,61.0,29.86,SSE,158,4.3,5.8,74,0.00,CLR,CLR,0.00,WeatherDisplay:10.37,2013-06-15 06:39:00,
2013-06-15 01:44:00,69.6,61.0,29.86,SSE,158,6.4,8.1,74,0.00,CLR,CLR,0.00,WeatherDisplay:10.37,2013-06-15 06:44:00,
2013-06-15 01:49:00,69.4,60.8,29.86,ESE,112,5.3,8.1,74,0.00,CLR,CLR,0.00,WeatherDisplay:10.37,2013-06-15 06:49:00,
2013-06-15 01:54:00,69.4,60.8,29.85,SSE,158,5.2,9.2,74,0.00,CLR,CLR,0.00,WeatherDisplay:10.37,2013-06-15 06:54:00,
2013-06-15 02:00:00,69.4,60.8,29.85,South,180,5.6,8.1,74,0.00,CLR,CLR,0.00,WeatherDisplay:10.37,2013-06-15 07:00:00,
2013-06-15 02:05:00,69.3,60.6,29.86,SSW,202,4.9,6.9,74,0.00,CLR,CLR,0.00,WeatherDisplay:10.37,2013-06-15 07:05:00,
2013-06-15 02:10:00,69.3,60.6,29.85,South,180,5.0,8.1,74,0.00,CLR,CLR,0.00,WeatherDisplay:10.37,2013-06-15 07:10:00,
2013-06-15 02:15:00,69.1,60.4,29.86,South,180,4.3,5.8,74,0.00,CLR,CLR,0.00,WeatherDisplay:10.37,2013-06-15 07:15:00,
2013-06-15 02:20:00,69.1,60.4,29.85,South,180,5.6,8.1,74,0.00,CLR,CLR,0.00,WeatherDisplay:10.37,2013-06-15 07:20:00,
2013-06-15 02:26:00,68.7,60.5,29.85,SSE,158,3.8,5.8,75,0.00,CLR,CLR,0.00,WeatherDisplay:10.37,2013-06-15 07:26:00,
2013-06-15 02:31:00,68.5,60.3,29.84,SSE,158,5.4,5.8,75,0.00,CLR,CLR,0.00,WeatherDisplay:10.37,2013-06-15 07:31:00,
2013-06-15 02:36:00,68.2,60.3,29.85,SSE,158,4.8,6.9,76,0.00,CLR,CLR,0.00,WeatherDisplay:10.37,2013-06-15 07:36:00,
2013-06-15 02:41:00,68.2,60.3,29.85,ESE,112,3.0,3.5,76,0.00,CLR,CLR,0.00,WeatherDisplay:10.37,2013-06-15 07:41:00,
2013-06-15 02:47:00,67.8,60.0,29.85,South,180,2.0,4.6,76,0.00,CLR,CLR,0.00,WeatherDisplay:10.37,2013-06-15 07:47:00,
2013-06-15 02:52:00,67.8,60.3,29.85,SSE,158,3.1,5.8,77,0.00,CLR,CLR,0.00,WeatherDisplay:10.37,2013-06-15 07:52:00,
2013-06-15 02:57:00,67.8,60.3,29.84,ESE,112,2.7,5.8,77,0.00,CLR,CLR,0.00,WeatherDisplay:10.37,2013-06-15 07:57:00,
2013-06-15 03:02:00,67.8,60.3,29.85,SE,135,2.6,4.6,77,0.00,CLR,CLR,0.00,WeatherDisplay:10.37,2013-06-15 08:02:00,
2013-06-15 03:07:00,67.8,60.3,29.84,ESE,112,3.3,4.6,77,0.00,CLR,CLR,0.00,WeatherDisplay:10.37,2013-06-15 08:07:00,
2013-06-15 03:13:00,67.8,60.3,29.85,South,180,1.6,5.8,77,0.00,CLR,CLR,0.00,WeatherDisplay:10.37,2013-06-15 08:13:00,
2013-06-15 03:18:00,67.8,60.7,29.85,South,180,4.7,5.8,78,0.00,CLR,CLR,0.00,WeatherDisplay:10.37,2013-06-15 08:18:00,
2013-06-15 03:23:00,67.8,60.7,29.84,South,180,2.3,4.6,78,0.00,CLR,CLR,0.00,WeatherDisplay:10.37,2013-06-15 08:23:00,
2013-06-15 03:28:00,67.6,60.5,29.85,SE,135,4.5,5.1,78,0.00,CLR,CLR,0.00,WeatherDisplay:10.37,2013-06-15 08:28:00,
2013-06-15 03:33:00,67.6,60.5,29.85,South,180,3.8,5.8,78,0.00,CLR,CLR,0.00,WeatherDisplay:10.37,2013-06-15 08:33:00,
2013-06-15 03:38:00,67.5,60.7,29.85,SSW,202,3.9,5.8,79,0.00,CLR,CLR,0.00,WeatherDisplay:10.37,2013-06-15 08:38:00,
2013-06-15 03:43:00,67.3,60.5,29.85,SSE,158,5.6,5.6,79,0.00,CLR,CLR,0.00,WeatherDisplay:10.37,2013-06-15 08:43:00,
2013-06-15 03:48:00,67.3,60.9,29.85,SSW,202,2.9,3.5,80,0.00,CLR,CLR,0.00,WeatherDisplay:10.37,2013-06-15 08:48:00,
2013-06-15 03:53:00,67.1,60.7,29.85,SSW,202,2.5,5.8,80,0.00,CLR,CLR,0.00,WeatherDisplay:10.37,2013-06-15 08:53:00,
2013-06-15 03:59:00,66.9,60.5,29.85,SE,135,6.3,8.1,80,0.00,CLR,CLR,0.00,WeatherDisplay:10.37,2013-06-15 08:59:00,
2013-06-15 04:04:00,66.7,60.4,29.85,SSE,158,3.7,6.9,80,0.00,CLR,CLR,0.00,WeatherDisplay:10.37,2013-06-15 09:04:00,
2013-06-15 04:09:00,66.7,60.4,29.85,SSE,158,2.3,5.1,80,0.00,CLR,CLR,0.00,WeatherDisplay:10.37,2013-06-15 09:09:00,
2013-06-15 04:14:00,66.4,60.4,29.85,SSE,158,2.5,9.2,81,0.00,CLR,CLR,0.00,WeatherDisplay:10.37,2013-06-15 09:14:00,
2013-06-15 04:19:00,66.2,60.2,29.85,South,180,3.1,8.1,81,0.00,CLR,CLR,0.00,WeatherDisplay:10.37,2013-06-15 09:19:00,
2013-06-15 04:24:00,66.0,60.0,29.85,ESE,112,0.2,3.5,81,0.00,CLR,CLR,0.00,WeatherDisplay:10.37,2013-06-15 09:24:00,
2013-06-15 04:29:00,65.8,60.2,29.85,ESE,112,2.7,5.8,82,0.00,CLR,CLR,0.00,WeatherDisplay:10.37,2013-06-15 09:29:00,
2013-06-15 04:34:00,65.7,60.0,29.85,SSE,158,3.0,4.6,82,0.00,CLR,CLR,0.00,WeatherDisplay:10.37,2013-06-15 09:34:00,
2013-06-15 04:40:00,65.5,60.2,29.85,SSE,158,3.5,5.8,83,0.00,CLR,CLR,0.00,WeatherDisplay:10.37,2013-06-15 09:40:00,
2013-06-15 04:45:00,65.3,60.0,29.85,SE,135,1.1,3.5,83,0.00,CLR,CLR,0.00,WeatherDisplay:10.37,2013-06-15 09:45:00,
2013-06-15 04:50:00,65.1,59.8,29.85,ESE,112,3.9,3.9,83,0.00,CLR,CLR,0.00,WeatherDisplay:10.37,2013-06-15 09:50:00,
2013-06-15 04:55:00,64.9,59.7,29.85,ESE,112,0.7,1.2,83,0.00,CLR,CLR,0.00,WeatherDisplay:10.37,2013-06-15 09:55:00,
2013-06-15 05:01:00,64.8,59.5,29.85,SE,135,0.5,1.6,83,0.00,CLR,CLR,0.00,WeatherDisplay:10.37,2013-06-15 10:01:00,
2013-06-15 05:06:00,64.6,59.3,29.85,SSE,158,0.6,2.3,83,0.00,CLR,CLR,0.00,WeatherDisplay:10.37,2013-06-15 10:06:00,
2013-06-15 05:11:00,64.6,59.6,29.85,SE,135,0.0,0.0,84,0.00,CLR,CLR,0.00,WeatherDisplay:10.37,2013-06-15 10:11:00,
2013-06-15 05:16:00,64.2,59.3,29.85,SSE,158,0.0,0.0,84,0.00,CLR,CLR,0.00,WeatherDisplay:10.37,2013-06-15 10:16:00,
2013-06-15 05:21:00,64.2,59.3,29.86,SSE,158,1.0,2.3,84,0.00,CLR,CLR,0.00,WeatherDisplay:10.37,2013-06-15 10:21:00,
2013-06-15 05:27:00,64.0,59.1,29.85,SSE,158,0.6,2.3,84,0.00,CLR,CLR,0.00,WeatherDisplay:10.37,2013-06-15 10:27:00,
2013-06-15 05:32:00,63.9,59.3,29.86,ESE,112,0.0,0.0,85,0.00,CLR,CLR,0.00,WeatherDisplay:10.37,2013-06-15 10:32:00,
2013-06-15 05:37:00,63.7,59.1,29.86,ESE,112,0.0,0.0,85,0.00,CLR,CLR,0.00,WeatherDisplay:10.37,2013-06-15 10:37:00,
2013-06-15 05:42:00,63.5,58.9,29.85,SE,135,0.0,0.0,85,0.00,CLR,CLR,0.00,WeatherDisplay:10.37,2013-06-15 10:42:00,
2013-06-15 05:47:00,63.3,58.7,29.85,ESE,112,2.3,3.5,85,0.00,CLR,CLR,0.00,WeatherDisplay:10.37,2013-06-15 10:47:00,
2013-06-15 05:53:00,63.3,58.7,29.84,SE,135,0.8,2.3,85,0.00,CLR,CLR,0.00,WeatherDisplay:10.37,2013-06-15 10:53:00,
2013-06-15 05:58:00,63.1,58.9,29.84,ESE,112,1.9,2.3,86,0.00,CLR,CLR,0.00,WeatherDisplay:10.37,2013-06-15 10:58:00,
2013-06-15 06:03:00,63.3,59.1,29.84,ESE,112,1.2,2.3,86,0.00,CLR,CLR,0.00,WeatherDisplay:10.37,2013-06-15 11:03:00,
2013-06-15 06:08:00,63.5,59.2,29.84,SE,135,0.8,1.3,86,0.00,CLR,CLR,0.00,WeatherDisplay:10.37,2013-06-15 11:08:00,
2013-06-15 06:13:00,63.7,59.4,29.84,SE,135,0.0,0.0,86,0.00,CLR,CLR,0.00,WeatherDisplay:10.37,2013-06-15 11:13:00,
2013-06-15 06:18:00,63.9,59.6,29.85,WSW,248,0.0,0.0,86,0.00,CLR,CLR,0.00,WeatherDisplay:10.37,2013-06-15 11:18:00,
2013-06-15 06:23:00,64.2,60.3,29.85,WSW,248,0.0,0.0,87,0.00,CLR,CLR,0.00,WeatherDisplay:10.37,2013-06-15 11:23:00,
2013-06-15 06:29:00,64.4,60.4,29.86,SW,225,0.2,1.2,87,0.00,CLR,CLR,0.00,WeatherDisplay:10.37,2013-06-15 11:29:00,
2013-06-15 06:34:00,64.8,60.8,29.86,SSW,202,0.8,2.9,87,0.00,CLR,CLR,0.00,WeatherDisplay:10.37,2013-06-15 11:34:00,
2013-06-15 06:39:00,65.1,61.2,29.85,SSW,202,0.0,0.0,87,0.00,CLR,CLR,0.00,WeatherDisplay:10.37,2013-06-15 11:39:00,
2013-06-15 06:44:00,65.5,61.5,29.85,SW,225,0.1,1.2,87,0.00,CLR,CLR,0.00,WeatherDisplay:10.37,2013-06-15 11:44:00,
2013-06-15 06:50:00,66.0,61.7,29.85,South,180,0.6,3.6,86,0.00,CLR,CLR,0.00,WeatherDisplay:10.37,2013-06-15 11:50:00,
2013-06-15 06:55:00,66.4,62.1,29.86,SE,135,0.7,2.3,86,0.00,CLR,CLR,0.00,WeatherDisplay:10.37,2013-06-15 11:55:00,
2013-06-15 07:00:00,66.7,62.1,29.86,South,180,3.3,4.6,85,0.00,CLR,CLR,0.00,WeatherDisplay:10.37,2013-06-15 12:00:00,
2013-06-15 07:05:00,66.9,62.3,29.87,South,180,1.0,3.5,85,0.00,CLR,CLR,0.00,WeatherDisplay:10.37,2013-06-15 12:05:00,
2013-06-15 07:10:00,67.6,63.0,29.86,SSW,202,3.7,5.8,85,0.00,CLR,CLR,0.00,WeatherDisplay:10.37,2013-06-15 12:10:00,
2013-06-15 07:16:00,68.0,63.0,29.87,South,180,3.0,3.8,84,0.00,CLR,CLR,0.00,WeatherDisplay:10.37,2013-06-15 12:16:00,
2013-06-15 07:21:00,68.2,62.8,29.87,SSE,158,4.9,6.3,83,0.00,CLR,CLR,0.00,WeatherDisplay:10.37,2013-06-15 12:21:00,
2013-06-15 07:26:00,68.7,63.3,29.88,South,180,3.8,6.9,83,0.00,CLR,CLR,0.00,WeatherDisplay:10.37,2013-06-15 12:26:00,
2013-06-15 07:31:00,69.3,63.5,29.88,SSE,158,2.1,5.8,82,0.00,CLR,CLR,0.00,WeatherDisplay:10.37,2013-06-15 12:31:00,
2013-06-15 07:36:00,69.6,63.5,29.87,SW,225,1.5,3.6,81,0.00,CLR,CLR,0.00,WeatherDisplay:10.37,2013-06-15 12:36:00,
2013-06-15 07:42:00,69.8,63.7,29.87,WSW,248,4.3,8.1,81,0.00,CLR,CLR,0.00,WeatherDisplay:10.37,2013-06-15 12:42:00,
2013-06-15 07:47:00,70.0,63.5,29.88,WNW,292,3.1,4.6,80,0.00,CLR,CLR,0.00,WeatherDisplay:10.37,2013-06-15 12:47:00,
2013-06-15 07:52:00,70.0,63.5,29.88,WSW,248,5.7,9.2,80,0.00,CLR,CLR,0.00,WeatherDisplay:10.37,2013-06-15 12:52:00,
2013-06-15 07:57:00,70.2,63.7,29.87,WSW,248,4.7,5.8,80,0.00,CLR,CLR,0.00,WeatherDisplay:10.37,2013-06-15 12:57:00,
2013-06-15 08:02:00,70.2,63.7,29.87,West,270,2.2,3.5,80,0.00,CLR,CLR,0.00,WeatherDisplay:10.37,2013-06-15 13:02:00,
2013-06-15 08:07:00,70.3,63.9,29.87,WSW,248,4.2,5.8,80,0.00,CLR,CLR,0.00,WeatherDisplay:10.37,2013-06-15 13:07:00,
2013-06-15 08:13:00,70.5,64.0,29.87,West,270,3.6,6.9,80,0.00,CLR,CLR,0.00,WeatherDisplay:10.37,2013-06-15 13:13:00,
2013-06-15 08:18:00,70.5,64.0,29.86,West,270,1.9,4.9,80,0.00,CLR,CLR,0.00,WeatherDisplay:10.37,2013-06-15 13:18:00,
2013-06-15 08:23:00,71.2,64.4,29.85,NNW,338,0.8,2.3,79,0.00,CLR,CLR,0.00,WeatherDisplay:10.37,2013-06-15 13:23:00,
2013-06-15 08:28:00,71.8,64.9,29.85,WSW,248,0.6,2.3,79,0.00,CLR,CLR,0.00,WeatherDisplay:10.37,2013-06-15 13:28:00,
2013-06-15 08:33:00,72.1,65.3,29.86,West,270,0.0,0.0,79,0.00,CLR,CLR,0.00,WeatherDisplay:10.37,2013-06-15 13:33:00,
2013-06-15 08:38:00,72.7,65.4,29.87,WSW,248,2.7,2.7,78,0.00,CLR,CLR,0.00,WeatherDisplay:10.37,2013-06-15 13:38:00,
2013-06-15 08:43:00,72.9,65.2,29.87,NW,315,0.7,1.2,77,0.00,CLR,CLR,0.00,WeatherDisplay:10.37,2013-06-15 13:43:00,
2013-06-15 08:49:00,73.0,65.4,29.87,WSW,248,2.3,5.8,77,0.00,CLR,CLR,0.00,WeatherDisplay:10.37,2013-06-15 13:49:00,
2013-06-15 08:54:00,73.2,65.2,29.88,NW,315,2.9,5.8,76,0.00,CLR,CLR,0.00,WeatherDisplay:10.37,2013-06-15 13:54:00,
2013-06-15 08:59:00,73.6,65.2,29.88,WNW,292,6.1,9.2,75,0.00,CLR,CLR,0.00,WeatherDisplay:10.37,2013-06-15 13:59:00,
2013-06-15 09:04:00,73.6,65.5,29.89,WNW,292,2.6,5.8,76,0.00,CLR,CLR,0.00,WeatherDisplay:10.37,2013-06-15 14:04:00,
2013-06-15 09:09:00,73.6,65.5,29.89,WNW,292,3.3,4.0,76,0.00,CLR,CLR,0.00,WeatherDisplay:10.37,2013-06-15 14:09:00,
2013-06-15 09:14:00,73.8,65.3,29.88,WNW,292,5.9,6.9,75,0.00,CLR,CLR,0.00,WeatherDisplay:10.37,2013-06-15 14:14:00,
2013-06-15 09:19:00,73.8,65.3,29.88,WNW,292,5.0,8.1,75,0.00,CLR,CLR,0.00,WeatherDisplay:10.37,2013-06-15 14:19:00,
2013-06-15 09:25:00,73.9,65.5,29.87,NNW,338,4.9,6.9,75,0.00,CLR,CLR,0.00,WeatherDisplay:10.37,2013-06-15 14:25:00,
2013-06-15 09:30:00,74.3,65.5,29.88,WNW,292,7.1,8.1,74,0.00,CLR,CLR,0.00,WeatherDisplay:10.37,2013-06-15 14:30:00,
2013-06-15 09:35:00,74.5,65.6,29.88,West,270,2.1,5.8,74,0.00,CLR,CLR,0.00,WeatherDisplay:10.37,2013-06-15 14:35:00,
2013-06-15 09:40:00,74.8,65.6,29.88,West,270,4.7,9.2,73,0.00,CLR,CLR,0.00,WeatherDisplay:10.37,2013-06-15 14:40:00,
2013-06-15 09:45:00,74.8,65.6,29.89,WNW,292,5.4,9.2,73,0.00,CLR,CLR,0.00,WeatherDisplay:10.37,2013-06-15 14:45:00,
2013-06-15 09:50:00,75.4,65.7,29.89,NW,315,3.6,5.8,72,0.00,CLR,CLR,0.00,WeatherDisplay:10.37,2013-06-15 14:50:00,
2013-06-15 09:55:00,75.4,65.7,29.89,NW,315,6.9,10.4,72,0.00,CLR,CLR,0.00,WeatherDisplay:10.37,2013-06-15 14:55:00,
2013-06-15 10:00:00,75.4,65.7,29.90,WNW,292,7.2,12.7,72,0.00,CLR,CLR,0.00,WeatherDisplay:10.37,2013-06-15 15:00:00,
2013-06-15 10:06:00,75.4,65.7,29.89,NW,315,8.7,11.5,72,0.00,CLR,CLR,0.00,WeatherDisplay:10.37,2013-06-15 15:06:00,
2013-06-15 10:11:00,75.4,65.7,29.88,NNW,338,7.6,10.4,72,0.00,CLR,CLR,0.00,WeatherDisplay:10.37,2013-06-15 15:11:00,
2013-06-15 10:16:00,75.7,66.1,29.89,North,0,8.1,12.7,72,0.00,CLR,CLR,0.00,WeatherDisplay:10.37,2013-06-15 15:16:00,
2013-06-15 10:21:00,75.9,65.8,29.88,NW,315,7.1,9.2,71,0.00,CLR,CLR,0.00,WeatherDisplay:10.37,2013-06-15 15:21:00,
2013-06-15 10:26:00,76.6,66.5,29.88,NW,315,6.4,13.8,71,0.00,CLR,CLR,0.00,WeatherDisplay:10.37,2013-06-15 15:26:00,
2013-06-15 10:31:00,76.8,65.9,29.89,WNW,292,4.9,11.5,69,0.00,CLR,CLR,0.00,WeatherDisplay:10.37,2013-06-15 15:31:00,
2013-06-15 10:36:00,77.5,66.6,29.88,NW,315,7.8,11.5,69,0.00,CLR,CLR,0.00,WeatherDisplay:10.37,2013-06-15 15:36:00,
2013-06-15 10:41:00,77.4,66.4,29.89,NNW,338,4.9,6.9,69,0.00,CLR,CLR,0.00,WeatherDisplay:10.37,2013-06-15 15:41:00,
2013-06-15 10:47:00,77.4,66.0,29.89,WNW,292,6.6,10.4,68,0.00,CLR,CLR,0.00,WeatherDisplay:10.37,2013-06-15 15:47:00,
2013-06-15 10:52:00,76.8,65.9,29.89,NNE,22,11.5,14.1,69,0.00,CLR,CLR,0.00,WeatherDisplay:10.37,2013-06-15 15:52:00,
2013-06-15 10:57:00,76.8,65.9,29.89,NNW,338,5.2,6.9,69,0.00,CLR,CLR,0.00,WeatherDisplay:10.37,2013-06-15 15:57:00,
2013-06-15 11:02:00,77.2,66.2,29.89,WNW,292,7.4,13.2,69,0.00,CLR,CLR,0.00,WeatherDisplay:10.37,2013-06-15 16:02:00,
2013-06-15 11:07:00,77.5,66.1,29.89,WNW,292,6.6,9.6,68,0.00,CLR,CLR,0.00,WeatherDisplay:10.37,2013-06-15 16:07:00,
2013-06-15 11:12:00,77.7,65.9,29.89,West,270,4.1,9.2,67,0.00,CLR,CLR,0.00,WeatherDisplay:10.37,2013-06-15 16:12:00,
2013-06-15 11:17:00,77.9,66.1,29.88,NNW,338,7.2,13.2,67,0.00,CLR,CLR,0.00,WeatherDisplay:10.37,2013-06-15 16:17:00,
2013-06-15 11:23:00,78.4,66.1,29.88,NW,315,3.6,5.8,66,0.00,CLR,CLR,0.00,WeatherDisplay:10.37,2013-06-15 16:23:00,
2013-06-15 11:28:00,79.0,66.2,29.88,North,0,8.8,11.6,65,0.00,CLR,CLR,0.00,WeatherDisplay:10.37,2013-06-15 16:28:00,
2013-06-15 11:33:00,79.5,66.3,29.88,NNW,338,7.0,11.6,64,0.00,CLR,CLR,0.00,WeatherDisplay:10.37,2013-06-15 16:33:00,
2013-06-15 11:38:00,79.7,66.4,29.87,NNW,338,11.3,16.1,64,0.00,CLR,CLR,0.00,WeatherDisplay:10.37,2013-06-15 16:38:00,
2013-06-15 11:44:00,79.9,66.2,29.87,NNW,338,4.9,10.4,63,0.00,CLR,CLR,0.00,WeatherDisplay:10.37,2013-06-15 16:44:00,
2013-06-15 11:49:00,80.2,65.1,29.87,NW,315,8.5,14.1,60,0.00,CLR,CLR,0.00,WeatherDisplay:10.37,2013-06-15 16:49:00,
2013-06-15 11:54:00,80.4,65.7,29.87,NNW,338,6.7,9.2,61,0.00,CLR,CLR,0.00,WeatherDisplay:10.37,2013-06-15 16:54:00,
2013-06-15 11:59:00,80.4,65.3,29.87,NNW,338,7.3,9.2,60,0.00,CLR,CLR,0.00,WeatherDisplay:10.37,2013-06-15 16:59:00,
2013-06-15 12:04:00,80.8,65.1,29.87,NW,315,7.2,10.4,59,0.00,CLR,CLR,0.00,WeatherDisplay:10.37,2013-06-15 17:04:00,
2013-06-15 12:09:00,80.8,64.6,29.87,North,0,6.7,9.2,58,0.00,CLR,CLR,0.00,WeatherDisplay:10.37,2013-06-15 17:09:00,
2013-06-15 12:15:00,80.8,64.6,29.88,North,0,2.8,6.0,58,0.00,CLR,CLR,0.00,WeatherDisplay:10.37,2013-06-15 17:15:00,
2013-06-15 12:20:00,80.4,63.8,29.88,NNE,22,4.0,4.6,57,0.00,CLR,CLR,0.00,WeatherDisplay:10.37,2013-06-15 17:20:00,
2013-06-15 12:25:00,80.2,63.6,29.89,NNW,338,3.8,3.8,57,0.00,CLR,CLR,0.00,WeatherDisplay:10.37,2013-06-15 17:25:00,
2013-06-15 12:30:00,80.2,63.6,29.89,WNW,292,0.7,3.5,57,0.00,CLR,CLR,0.00,WeatherDisplay:10.37,2013-06-15 17:30:00,
2013-06-15 12:35:00,80.2,62.6,29.90,WNW,292,1.9,2.3,55,0.00,CLR,CLR,0.00,WeatherDisplay:10.37,2013-06-15 17:35:00,
2013-06-15 12:40:00,80.2,62.6,29.90,NNE,22,1.8,3.5,55,0.00,CLR,CLR,0.00,WeatherDisplay:10.37,2013-06-15 17:40:00,
2013-06-15 12:46:00,80.2,62.6,29.89,North,0,2.2,4.6,55,0.00,CLR,CLR,0.00,WeatherDisplay:10.37,2013-06-15 17:46:00,
2013-06-15 12:51:00,80.4,62.2,29.89,NNW,338,2.6,3.5,54,0.00,CLR,CLR,0.00,WeatherDisplay:10.37,2013-06-15 17:51:00,
2013-06-15 12:56:00,80.4,61.7,29.90,WNW,292,3.1,4.6,53,0.00,CLR,CLR,0.00,WeatherDisplay:10.37,2013-06-15 17:56:00,
2013-06-15 13:01:00,80.2,61.6,29.90,NW,315,5.4,6.9,53,0.00,CLR,CLR,0.00,WeatherDisplay:10.37,2013-06-15 18:01:00,
2013-06-15 13:06:00,79.5,60.9,29.89,NW,315,2.4,6.9,53,0.00,CLR,CLR,0.00,WeatherDisplay:10.37,2013-06-15 18:06:00,
2013-06-15 13:12:00,79.0,60.9,29.89,WNW,292,2.5,4.6,54,0.00,CLR,CLR,0.00,WeatherDisplay:10.37,2013-06-15 18:12:00,
2013-06-15 13:17:00,79.0,60.9,29.88,WNW,292,4.6,4.6,54,0.00,CLR,CLR,0.00,WeatherDisplay:10.37,2013-06-15 18:17:00,
2013-06-15 13:22:00,79.0,60.9,29.88,NW,315,3.6,4.6,54,0.00,CLR,CLR,0.00,WeatherDisplay:10.37,2013-06-15 18:22:00,
2013-06-15 13:27:00,79.2,61.1,29.89,West,270,4.8,6.9,54,0.00,CLR,CLR,0.00,WeatherDisplay:10.37,2013-06-15 18:27:00,
2013-06-15 13:32:00,79.2,60.6,29.88,NW,315,3.6,10.1,53,0.00,CLR,CLR,0.00,WeatherDisplay:10.37,2013-06-15 18:32:00,
2013-06-15 13:37:00,79.3,61.2,29.88,WNW,292,6.2,8.1,54,0.00,CLR,CLR,0.00,WeatherDisplay:10.37,2013-06-15 18:37:00,
2013-06-15 13:42:00,79.5,60.4,29.88,WNW,292,5.3,6.9,52,0.00,CLR,CLR,0.00,WeatherDisplay:10.37,2013-06-15 18:42:00,
2013-06-15 13:47:00,79.5,59.8,29.88,West,270,4.3,4.6,51,0.00,CLR,CLR,0.00,WeatherDisplay:10.37,2013-06-15 18:47:00,
2013-06-15 13:53:00,79.9,60.1,29.87,North,0,9.0,10.4,51,0.00,CLR,CLR,0.00,WeatherDisplay:10.37,2013-06-15 18:53:00,
2013-06-15 13:58:00,80.4,60.1,29.87,North,0,4.7,6.9,50,0.00,CLR,CLR,0.00,WeatherDisplay:10.37,2013-06-15 18:58:00,
2013-06-15 14:03:00,80.6,60.2,29.87,NNE,22,6.1,10.4,50,0.00,CLR,CLR,0.00,WeatherDisplay:10.37,2013-06-15 19:03:00,
2013-06-15 14:08:00,81.1,61.3,29.87,North,0,7.9,11.5,51,0.00,CLR,CLR,0.00,WeatherDisplay:10.37,2013-06-15 19:08:00,
2013-06-15 14:13:00,81.7,61.2,29.87,WNW,292,8.4,15.2,50,0.00,CLR,CLR,0.00,WeatherDisplay:10.37,2013-06-15 19:13:00,
2013-06-15 14:19:00,81.7,60.7,29.87,NNE,22,7.6,13.8,49,0.00,CLR,CLR,0.00,WeatherDisplay:10.37,2013-06-15 19:19:00,
2013-06-15 14:24:00,81.7,60.7,29.87,WNW,292,10.0,15.0,49,0.00,CLR,CLR,0.00,WeatherDisplay:10.37,2013-06-15 19:24:00,
2013-06-15 14:29:00,81.5,60.5,29.87,WNW,292,9.8,17.3,49,0.00,CLR,CLR,0.00,WeatherDisplay:10.37,2013-06-15 19:29:00,
2013-06-15 14:34:00,81.3,59.8,29.87,NW,315,10.7,15.0,48,0.00,CLR,CLR,0.00,WeatherDisplay:10.37,2013-06-15 19:34:00,
2013-06-15 14:39:00,81.1,60.2,29.87,NW,315,6.3,9.2,49,0.00,CLR,CLR,0.00,WeatherDisplay:10.37,2013-06-15 19:39:00,
2013-06-15 14:45:00,81.1,60.2,29.87,WNW,292,11.6,15.0,49,0.00,CLR,CLR,0.00,WeatherDisplay:10.37,2013-06-15 19:45:00,
2013-06-15 14:50:00,81.1,59.6,29.87,NW,315,5.1,8.1,48,0.00,CLR,CLR,0.00,WeatherDisplay:10.37,2013-06-15 19:50:00,
2013-06-15 14:55:00,81.5,60.5,29.87,WNW,292,2.5,9.2,49,0.00,CLR,CLR,0.00,WeatherDisplay:10.37,2013-06-15 19:55:00,
2013-06-15 15:00:00,81.5,59.9,29.88,WNW,292,7.8,8.1,48,0.00,CLR,CLR,0.00,WeatherDisplay:10.37,2013-06-15 20:00:00,
2013-06-15 15:05:00,81.0,58.8,29.88,West,270,5.7,8.1,47,0.00,CLR,CLR,0.00,WeatherDisplay:10.37,2013-06-15 20:05:00,
2013-06-15 15:10:00,81.0,58.8,29.87,West,270,2.6,3.5,47,0.00,CLR,CLR,0.00,WeatherDisplay:10.37,2013-06-15 20:10:00,
2013-06-15 15:16:00,81.7,59.5,29.88,NW,315,4.3,6.9,47,0.00,CLR,CLR,0.00,WeatherDisplay:10.37,2013-06-15 20:16:00,
2013-06-15 15:21:00,82.2,58.8,29.87,West,270,2.9,4.7,45,0.00,CLR,CLR,0.00,WeatherDisplay:10.37,2013-06-15 20:21:00,
2013-06-15 15:26:00,82.0,58.0,29.88,WNW,292,2.6,4.6,44,0.00,CLR,CLR,0.00,WeatherDisplay:10.37,2013-06-15 20:26:00,
2013-06-15 15:31:00,82.0,58.6,29.87,WSW,248,0.5,2.3,45,0.00,CLR,CLR,0.00,WeatherDisplay:10.37,2013-06-15 20:31:00,
2013-06-15 15:36:00,82.4,57.7,29.87,West,270,1.3,4.6,43,0.00,CLR,CLR,0.00,WeatherDisplay:10.37,2013-06-15 20:36:00,
2013-06-15 15:42:00,82.6,58.5,29.87,WNW,292,3.9,5.8,44,0.00,CLR,CLR,0.00,WeatherDisplay:10.37,2013-06-15 20:42:00,
2013-06-15 15:47:00,82.8,58.6,29.87,South,180,2.1,4.6,44,0.00,CLR,CLR,0.00,WeatherDisplay:10.37,2013-06-15 20:47:00,
2013-06-15 15:52:00,83.1,59.6,29.87,WSW,248,4.9,6.9,45,0.00,CLR,CLR,0.00,WeatherDisplay:10.37,2013-06-15 20:52:00,
2013-06-15 15:57:00,83.3,58.5,29.86,NNW,338,5.8,8.1,43,0.00,CLR,CLR,0.00,WeatherDisplay:10.37,2013-06-15 20:57:00,
2013-06-15 16:03:00,83.1,57.0,29.86,WNW,292,3.2,4.6,41,0.00,CLR,CLR,0.00,WeatherDisplay:10.37,2013-06-15 21:03:00,
2013-06-15 16:08:00,83.1,57.0,29.86,SSW,202,2.0,3.5,41,0.00,CLR,CLR,0.00,WeatherDisplay:10.37,2013-06-15 21:08:00,
2013-06-15 16:13:00,83.5,56.6,29.86,West,270,5.3,5.8,40,0.00,CLR,CLR,0.00,WeatherDisplay:10.37,2013-06-15 21:13:00,
2013-06-15 16:18:00,83.8,56.2,29.86,WSW,248,5.9,6.9,39,0.00,CLR,CLR,0.00,WeatherDisplay:10.37,2013-06-15 21:18:00,
2013-06-15 16:23:00,84.4,56.0,29.86,WSW,248,1.3,4.0,38,0.00,CLR,CLR,0.00,WeatherDisplay:10.37,2013-06-15 21:23:00,
2013-06-15 16:29:00,84.6,56.9,29.86,SSW,202,1.4,3.6,39,0.00,CLR,CLR,0.00,WeatherDisplay:10.37,2013-06-15 21:29:00,
2013-06-15 16:34:00,84.9,55.7,29.86,WSW,248,6.0,8.1,37,0.00,CLR,CLR,0.00,WeatherDisplay:10.37,2013-06-15 21:34:00,
2013-06-15 16:39:00,84.9,55.7,29.86,SSE,158,0.5,2.2,37,0.00,CLR,CLR,0.00,WeatherDisplay:10.37,2013-06-15 21:39:00,
2013-06-15 16:44:00,85.6,56.4,29.86,SW,225,3.2,4.7,37,0.00,CLR,CLR,0.00,WeatherDisplay:10.37,2013-06-15 21:44:00,
2013-06-15 16:50:00,85.8,57.3,29.85,SSW,202,1.0,2.3,38,0.00,CLR,CLR,0.00,WeatherDisplay:10.37,2013-06-15 21:50:00,
2013-06-15 16:55:00,86.4,56.3,29.85,West,270,6.0,9.2,36,0.00,CLR,CLR,0.00,WeatherDisplay:10.37,2013-06-15 21:55:00,
2013-06-15 17:00:00,86.2,55.3,29.85,WSW,248,4.9,6.9,35,0.00,CLR,CLR,0.00,WeatherDisplay:10.37,2013-06-15 22:00:00,
2013-06-15 17:05:00,86.2,52.9,29.85,WNW,292,6.9,8.1,32,0.00,CLR,CLR,0.00,WeatherDisplay:10.37,2013-06-15 22:05:00,
2013-06-15 17:11:00,86.2,53.7,29.85,West,270,2.8,3.5,33,0.00,CLR,CLR,0.00,WeatherDisplay:10.37,2013-06-15 22:11:00,
2013-06-15 17:16:00,86.4,53.9,29.86,WNW,292,2.6,3.5,33,0.00,CLR,CLR,0.00,WeatherDisplay:10.37,2013-06-15 22:16:00,
2013-06-15 17:21:00,86.7,53.3,29.85,West,270,3.9,8.1,32,0.00,CLR,CLR,0.00,WeatherDisplay:10.37,2013-06-15 22:21:00,
2013-06-15 17:26:00,87.6,54.1,29.85,SSW,202,2.0,3.5,32,0.00,CLR,CLR,0.00,WeatherDisplay:10.37,2013-06-15 22:26:00,
2013-06-15 17:31:00,88.3,55.6,29.85,WNW,292,4.6,6.9,33,0.00,CLR,CLR,0.00,WeatherDisplay:10.37,2013-06-15 22:31:00,
2013-06-15 17:37:00,88.9,55.2,29.85,WNW,292,4.7,8.1,32,0.00,CLR,CLR,0.00,WeatherDisplay:10.37,2013-06-15 22:37:00,
2013-06-15 17:42:00,88.5,54.0,29.85,West,270,5.6,11.5,31,0.00,CLR,CLR,0.00,WeatherDisplay:10.37,2013-06-15 22:42:00,
2013-06-15 17:47:00,88.0,53.6,29.84,West,270,4.4,11.5,31,0.00,CLR,CLR,0.00,WeatherDisplay:10.37,2013-06-15 22:47:00,
2013-06-15 17:53:00,88.0,54.4,29.84,SW,225,3.6,6.9,32,0.00,CLR,CLR,0.00,WeatherDisplay:10.37,2013-06-15 22:53:00,
2013-06-15 17:58:00,88.3,53.9,29.84,West,270,4.7,4.7,31,0.00,CLR,CLR,0.00,WeatherDisplay:10.37,2013-06-15 22:58:00,
2013-06-15 18:03:00,88.2,51.9,29.85,WNW,292,5.0,8.1,29,0.00,CLR,CLR,0.00,WeatherDisplay:10.37,2013-06-15 23:03:00,
2013-06-15 18:08:00,88.2,53.7,29.84,West,270,5.7,10.7,31,0.00,CLR,CLR,0.00,WeatherDisplay:10.37,2013-06-15 23:08:00,
2013-06-15 18:13:00,87.8,51.6,29.84,WNW,292,3.7,3.7,29,0.00,CLR,CLR,0.00,WeatherDisplay:10.37,2013-06-15 23:13:00,
2013-06-15 18:18:00,88.0,53.6,29.84,WNW,292,6.8,10.5,31,0.00,CLR,CLR,0.00,WeatherDisplay:10.37,2013-06-15 23:18:00,
2013-06-15 18:24:00,88.0,51.7,29.84,West,270,6.7,11.5,29,0.00,CLR,CLR,0.00,WeatherDisplay:10.37,2013-06-15 23:24:00,
2013-06-15 18:29:00,87.6,50.5,29.84,West,270,5.7,9.2,28,0.00,CLR,CLR,0.00,WeatherDisplay:10.37,2013-06-15 23:29:00,
2013-06-15 18:34:00,86.9,49.9,29.84,NNW,338,6.3,11.5,28,0.00,CLR,CLR,0.00,WeatherDisplay:10.37,2013-06-15 23:34:00,
2013-06-15 18:39:00,86.4,49.4,29.84,NW,315,5.3,11.5,28,0.00,CLR,CLR,0.00,WeatherDisplay:10.37,2013-06-15 23:39:00,
2013-06-15 18:44:00,86.5,50.5,29.84,WNW,292,8.0,10.4,29,0.00,CLR,CLR,0.00,WeatherDisplay:10.37,2013-06-15 23:44:00,
2013-06-15 18:50:00,86.7,49.7,29.84,NW,315,7.5,9.2,28,0.00,CLR,CLR,0.00,WeatherDisplay:10.37,2013-06-15 23:50:00,
2013-06-15 18:55:00,86.4,49.4,29.84,NW,315,5.5,9.2,28,0.00,CLR,CLR,0.00,WeatherDisplay:10.37,2013-06-15 23:55:00,
2013-06-15 19:00:00,85.6,49.7,29.84,West,270,4.9,5.8,29,0.00,CLR,CLR,0.00,WeatherDisplay:10.37,2013-06-16 00:00:00,
2013-06-15 19:05:00,85.3,50.3,29.84,WNW,292,4.1,5.8,30,0.00,CLR,CLR,0.00,WeatherDisplay:10.37,2013-06-16 00:05:00,
2013-06-15 19:11:00,84.7,50.8,29.84,WSW,248,2.5,3.5,31,0.00,CLR,CLR,0.00,WeatherDisplay:10.37,2013-06-16 00:11:00,
2013-06-15 19:16:00,84.9,50.0,29.84,WSW,248,5.2,10.4,30,0.00,CLR,CLR,0.00,WeatherDisplay:10.37,2013-06-16 00:16:00,
2013-06-15 19:21:00,85.8,51.7,29.84,NW,315,5.6,7.4,31,0.00,CLR,CLR,0.00,WeatherDisplay:10.37,2013-06-16 00:21:00,
2013-06-15 19:26:00,84.0,50.1,29.84,NW,315,5.3,19.0,31,0.00,CLR,CLR,0.00,WeatherDisplay:10.37,2013-06-16 00:26:00,
2013-06-15 19:31:00,82.0,50.1,29.84,NNW,338,5.3,8.1,33,0.00,CLR,CLR,0.00,WeatherDisplay:10.37,2013-06-16 00:31:00,
2013-06-15 19:36:00,82.8,51.5,29.85,WNW,292,4.8,10.4,34,0.00,CLR,CLR,0.00,WeatherDisplay:10.37,2013-06-16 00:36:00,
2013-06-15 19:42:00,84.4,52.1,29.84,WNW,292,5.2,6.9,33,0.00,CLR,CLR,0.00,WeatherDisplay:10.37,2013-06-16 00:42:00,
2013-06-15 19:47:00,85.5,52.2,29.85,West,270,5.4,6.9,32,0.00,CLR,CLR,0.00,WeatherDisplay:10.37,2013-06-16 00:47:00,
2013-06-15 19:52:00,85.3,52.1,29.85,WNW,292,4.8,7.4,32,0.00,CLR,CLR,0.00,WeatherDisplay:10.37,2013-06-16 00:52:00,
2013-06-15 19:57:00,85.3,52.9,29.84,West,270,1.5,3.5,33,0.00,CLR,CLR,0.00,WeatherDisplay:10.37,2013-06-16 00:57:00,
2013-06-15 20:03:00,85.8,53.4,29.85,WNW,292,1.9,3.5,33,0.00,CLR,CLR,0.00,WeatherDisplay:10.37,2013-06-16 01:03:00,
2013-06-15 20:08:00,86.2,52.9,29.84,NW,315,2.7,3.5,32,0.00,CLR,CLR,0.00,WeatherDisplay:10.37,2013-06-16 01:08:00,
2013-06-15 20:13:00,85.8,52.5,29.85,WNW,292,1.7,2.3,32,0.00,CLR,CLR,0.00,WeatherDisplay:10.37,2013-06-16 01:13:00,
2013-06-15 20:18:00,85.5,52.2,29.85,WNW,292,1.2,3.5,32,0.00,CLR,CLR,0.00,WeatherDisplay:10.37,2013-06-16 01:18:00,
2013-06-15 20:23:00,85.1,52.8,29.85,WSW,248,1.3,3.5,33,0.00,CLR,CLR,0.00,WeatherDisplay:10.37,2013-06-16 01:23:00,
2013-06-15 20:28:00,84.6,52.3,29.85,WNW,292,2.2,3.6,33,0.00,CLR,CLR,0.00,WeatherDisplay:10.37,2013-06-16 01:28:00,
2013-06-15 20:33:00,83.1,51.0,29.85,NW,315,1.5,2.3,33,0.00,CLR,CLR,0.00,WeatherDisplay:10.37,2013-06-16 01:33:00,
2013-06-15 20:39:00,81.1,50.1,29.85,WNW,292,0.9,3.5,34,0.00,CLR,CLR,0.00,WeatherDisplay:10.37,2013-06-16 01:39:00,
2013-06-15 20:44:00,79.2,49.9,29.85,NW,315,0.9,2.3,36,0.00,CLR,CLR,0.00,WeatherDisplay:10.37,2013-06-16 01:44:00,
2013-06-15 20:49:00,77.4,49.0,29.85,NW,315,0.4,1.2,37,0.00,CLR,CLR,0.00,WeatherDisplay:10.37,2013-06-16 01:49:00,
2013-06-15 20:54:00,75.9,48.5,29.85,NW,315,0.0,0.0,38,0.00,CLR,CLR,0.00,WeatherDisplay:10.37,2013-06-16 01:54:00,
2013-06-15 21:00:00,75.0,49.1,29.85,WNW,292,0.0,0.0,40,0.00,CLR,CLR,0.00,WeatherDisplay:10.37,2013-06-16 02:00:00,
2013-06-15 21:05:00,73.9,50.6,29.85,WNW,292,0.0,0.0,44,0.00,CLR,CLR,0.00,WeatherDisplay:10.37,2013-06-16 02:05:00,
2013-06-15 21:10:00,73.0,50.4,29.85,WNW,292,0.0,0.0,45,0.00,CLR,CLR,0.00,WeatherDisplay:10.37,2013-06-16 02:10:00,
2013-06-15 21:15:00,72.1,50.8,29.85,South,180,0.0,0.0,47,0.00,CLR,CLR,0.00,WeatherDisplay:10.37,2013-06-16 02:15:00,
2013-06-15 21:20:00,71.4,51.3,29.85,South,180,0.0,0.0,49,0.00,CLR,CLR,0.00,WeatherDisplay:10.37,2013-06-16 02:20:00,
2013-06-15 21:25:00,70.5,51.0,29.85,South,180,0.0,0.0,50,0.00,CLR,CLR,0.00,WeatherDisplay:10.37,2013-06-16 02:25:00,
2013-06-15 21:30:00,69.8,50.9,29.86,South,180,0.0,0.0,51,0.00,CLR,CLR,0.00,WeatherDisplay:10.37,2013-06-16 02:30:00,
2013-06-15 21:35:00,68.9,50.5,29.86,South,180,0.0,0.0,52,0.00,CLR,CLR,0.00,WeatherDisplay:10.37,2013-06-16 02:35:00,
2013-06-15 21:40:00,68.4,51.1,29.87,South,180,0.0,0.0,54,0.00,CLR,CLR,0.00,WeatherDisplay:10.37,2013-06-16 02:40:00,
2013-06-15 21:46:00,67.6,50.9,29.87,South,180,0.0,0.0,55,0.00,CLR,CLR,0.00,WeatherDisplay:10.37,2013-06-16 02:46:00,
2013-06-15 21:51:00,67.1,50.4,29.86,South,180,0.0,0.0,55,0.00,CLR,CLR,0.00,WeatherDisplay:10.37,2013-06-16 02:51:00,
2013-06-15 21:56:00,66.6,50.4,29.87,South,180,0.0,0.0,56,0.00,CLR,CLR,0.00,WeatherDisplay:10.37,2013-06-16 02:56:00,
2013-06-15 22:01:00,66.0,49.9,29.87,South,180,0.0,0.0,56,0.00,CLR,CLR,0.00,WeatherDisplay:10.37,2013-06-16 03:01:00,
2013-06-15 22:06:00,65.5,49.8,29.87,South,180,1.1,2.3,57,0.00,CLR,CLR,0.00,WeatherDisplay:10.37,2013-06-16 03:06:00,
2013-06-15 22:12:00,64.9,50.3,29.87,South,180,0.8,2.3,59,0.00,CLR,CLR,0.00,WeatherDisplay:10.37,2013-06-16 03:12:00,
2013-06-15 22:17:00,64.4,50.2,29.87,SSW,202,0.6,1.2,60,0.00,CLR,CLR,0.00,WeatherDisplay:10.37,2013-06-16 03:17:00,
2013-06-15 22:22:00,64.0,50.3,29.87,SSW,202,0.6,3.5,61,0.00,CLR,CLR,0.00,WeatherDisplay:10.37,2013-06-16 03:22:00,
2013-06-15 22:27:00,63.7,50.0,29.87,NW,315,0.0,0.0,61,0.00,CLR,CLR,0.00,WeatherDisplay:10.37,2013-06-16 03:27:00,
2013-06-15 22:32:00,63.3,49.6,29.87,NNW,338,0.0,0.0,61,0.00,CLR,CLR,0.00,WeatherDisplay:10.37,2013-06-16 03:32:00,
2013-06-15 22:38:00,63.0,49.3,29.87,SSE,158,0.0,0.0,61,0.00,CLR,CLR,0.00,WeatherDisplay:10.37,2013-06-16 03:38:00,
2013-06-15 22:43:00,62.6,49.4,29.87,South,180,1.1,1.6,62,0.00,CLR,CLR,0.00,WeatherDisplay:10.37,2013-06-16 03:43:00,
2013-06-15 22:48:00,62.4,49.2,29.87,South,181,1.1,2.3,62,0.00,CLR,CLR,0.00,WeatherDisplay:10.37,2013-06-16 03:48:00,
2013-06-15 22:53:00,62.4,49.7,29.87,South,180,0.8,1.2,63,0.00,CLR,CLR,0.00,WeatherDisplay:10.37,2013-06-16 03:53:00,
2013-06-15 22:58:00,62.2,49.5,29.87,SSW,202,0.9,2.3,63,0.00,CLR,CLR,0.00,WeatherDisplay:10.37,2013-06-16 03:58:00,
2013-06-15 23:01:00,62.2,49.5,29.87,SSW,202,1.2,2.3,63,0.00,CLR,CLR,0.00,WeatherDisplay:10.37,2013-06-16 04:01:00,
2013-06-15 23:02:00,61.9,49.1,29.87,South,180,0.4,1.2,63,0.00,CLR,CLR,0.00,WeatherDisplay:10.37,2013-06-16 04:02:00,
2013-06-15 23:03:00,61.9,49.1,29.87,South,180,0.0,0.0,63,0.00,CLR,CLR,0.00,WeatherDisplay:10.37,2013-06-16 04:03:00,
2013-06-15 23:09:00,61.7,49.4,29.87,South,180,0.6,1.6,64,0.00,CLR,CLR,0.00,WeatherDisplay:10.37,2013-06-16 04:09:00,
2013-06-15 23:14:00,61.5,49.6,29.87,South,180,1.1,1.2,65,0.00,CLR,CLR,0.00,WeatherDisplay:10.37,2013-06-16 04:14:00,
2013-06-15 23:19:00,61.3,49.5,29.87,SSW,202,1.0,1.6,65,0.00,CLR,CLR,0.00,WeatherDisplay:10.37,2013-06-16 04:19:00,
2013-06-15 23:24:00,61.3,49.9,29.87,SSW,202,0.7,2.3,66,0.00,CLR,CLR,0.00,WeatherDisplay:10.37,2013-06-16 04:24:00,
2013-06-15 23:30:00,61.0,49.5,29.87,South,180,0.8,2.3,66,0.00,CLR,CLR,0.00,WeatherDisplay:10.37,2013-06-16 04:30:00,
2013-06-15 23:35:00,61.0,49.5,29.87,SW,225,2.1,3.5,66,0.00,CLR,CLR,0.00,WeatherDisplay:10.37,2013-06-16 04:35:00,
2013-06-15 23:40:00,60.6,49.2,29.87,West,270,0.6,2.3,66,0.00,CLR,CLR,0.00,WeatherDisplay:10.37,2013-06-16 04:40:00,
2013-06-15 23:45:00,60.4,49.4,29.87,WSW,248,0.0,1.2,67,0.00,CLR,CLR,0.00,WeatherDisplay:10.37,2013-06-16 04:45:00,
2013-06-15 23:50:00,60.3,49.7,29.87,South,180,0.2,1.2,68,0.00,CLR,CLR,0.00,WeatherDisplay:10.37,2013-06-16 04:50:00,
2013-06-15 23:55:00,60.1,49.5,29.87,NW,315,0.0,0.0,68,0.00,CLR,CLR,0.00,WeatherDisplay:10.37,2013-06-16 04:55:00,